Regional Weather Roundup
Issued by NWS

Home | Current Version | Previous Version | Graphics & Text | Print | Product List | Glossary On
Versions: 1 2 3 4 5 6 7 8 9 10 11 12 13 14 15 16 17 18 19 20 21 22 23 24 25 26 27 28 29 30 31 32 33 34 35 36 37 38 39 40 41 42 43 44 45 46 47 48 49 50
000
ASUS43 KLSX 190157
RWRMO

WEATHER SUMMARY FOR MISSOURI
NATIONAL WEATHER SERVICE SPRINGFIELD MO
800 PM CST SAT NOV 18 2017

NOTE: "FAIR" INDICATES FEW OR NO CLOUDS BELOW 12,000 FEET WITH NO
       SIGNIFICANT WEATHER AND/OR OBSTRUCTIONS TO VISIBILITY.
       CURRENT SKY AND/OR WEATHER CONDITIONS ARE NOT AVAILABLE FOR
       CHILLICOTHE AND FARMINGTON.

MOZ001>031-035>038-043-044-053-054-190300-
...NORTHERN AND WESTERN MISSOURI...

CITY           SKY/WX    TMP DP  RH WIND       PRES   REMARKS
KANSAS CTY INT CLEAR     42  28  57 NW12      30.13R
LEE`S SUMMIT   CLEAR     45  28  51 NW17G25   30.13R
ST JOSEPH      CLEAR     36  27  69 NW10      30.16R WCI  28
CHILLICOTHE      N/A     41  28  60 NW15G23   30.10R

$$
MOZ066>068-077>081-088>096-101>105-190300-
...SOUTHWEST MISSOURI...

CITY           SKY/WX    TMP DP  RH WIND       PRES   REMARKS
SPRINGFIELD    CLEAR     41  32  70 NW9       30.09R
JOPLIN         CLEAR     41  35  79 W7        30.16R
BRANSON        CLEAR     45  32  61 NW10G21   30.12R

$$
MOZ032>034-039>042-045>050-055>058-069>072-190300-
...CENTRAL MISSOURI...

CITY           SKY/WX    TMP DP  RH WIND       PRES   REMARKS
COLUMBIA       NOT AVBL
JEFFERSON CITY CLEAR     41  33  73 NW5       30.04R
ROLLA          CLEAR     40  33  76 W13G21    30.02R
SEDALIA        CLEAR     45  32  60 NW18G28   30.08R
WARRENSBURG    PTCLDY    43  28  56 NW14      30.11R

$$
MOZ051-052-059>065-190300-
...EAST CENTRAL MISSOURI...

CITY           SKY/WX    TMP DP  RH WIND       PRES   REMARKS
ST LOUIS INTL  CLEAR     42  34  73 NW12      29.94R

$$
MOZ072>076-082>087-097>100-106>115-190300-
...SOUTH CENTRAL AND SOUTHEAST MISSOURI...

CITY           SKY/WX    TMP DP  RH WIND       PRES   REMARKS
CAPE GIRARDEAU PTCLDY    45  34  65 NW17G25   29.94R
POPLAR BLUFF   CLEAR     46  33  60 NW17G24   29.99R
WEST PLAINS    CLEAR     42  33  70 NW12G18   30.05R

$$



USA.gov is the U.S. government's official web portal to all federal, state and local government web resources and services.